Location: *
(45.5224°N, 122.7471°W)
Time: 04:19:09
(UTC+00:00)

BREEZE M DEB (TANK) - Pass Details

Date: 09 April 2020
Orbit: 287 x 14551 km, 49.5° (Epoch: 23 May)

Event Time Altitude Azimuth Distance (km) Brightness Sun altitude
Exits shadow 12:42:28 14° 272° (W) 1,073 3.8 -9.7°
Maximum altitude 12:44:22 54° 350° (N) 527 2.8 -9.4°
Drops below altitude 10° 12:49:03 10° 70° (ENE) 2,568 8.0 -8.6°
Sets 12:53:36 0° 74° (ENE) 4,754 10.1 -7.8°
